Regional Weather Roundup
Issued by NWS

Home | Current Version | Previous Version | Text Only | Print | Product List | Glossary Off
Versions: 1 2 3 4 5 6 7 8 9 10 11 12 13 14 15 16 17 18 19 20 21 22 23 24 25 26 27 28 29 30 31 32 33 34 35 36 37 38 39 40 41 42 43 44 45 46 47 48 49 50

000
ASUS43 KLSX 191207
RWRMO

WEATHER SUMMARY FOR MISSOURI
NATIONAL WEATHER SERVICE SPRINGFIELD MO
700 AM CDT SAT APR 19 2014

NOTE: "FAIR" INDICATES FEW OR NO CLOUDS BELOW 12,000 FEET WITH NO
       SIGNIFICANT WEATHER AND/OR OBSTRUCTIONS TO VISIBILITY.
       CURRENT SKY AND/OR WEATHER CONDITIONS ARE NOT AVAILABLE FOR
       CHILLICOTHE AND FARMINGTON.

MOZ001>031-035>038-043-044-053-054-191300-
...NORTHERN AND WESTERN MISSOURI...

CITY           SKY/WX    TMP DP  RH WIND       PRES   REMARKS
KANSAS CTY INT PTCLDY    52  39  61 SE12      30.14S
6HR MIN TEMP:  50; 6HR MAX TEMP:  55;

KANSAS C DTWN  CLEAR     56  40  55 S8        30.14R
6HR MIN TEMP:  55; 6HR MAX TEMP:  61;

LEE`S SUMMIT   CLEAR     52  39  61 S9        30.16R
6HR MIN TEMP:  52; 6HR MAX TEMP:  56;

ST JOSEPH      CLEAR     49  39  68 SW3       30.13R
6HR MIN TEMP:  44; 6HR MAX TEMP:  57;

CHILLICOTHE      N/A     49  40  71 SE5       30.20R
6HR MIN TEMP:  49; 6HR MAX TEMP:  53;

KIRKSVILLE     CLEAR     45  36  70 E9        30.23R
6HR MIN TEMP:  44; 6HR MAX TEMP:  49;


$$
MOZ066>068-077>081-088>096-101>105-191300-
...SOUTHWEST MISSOURI...

CITY           SKY/WX    TMP DP  RH WIND       PRES   REMARKS
SPRINGFIELD    CLEAR     50  41  71 SE8       30.22R
6HR MIN TEMP:  49; 6HR MAX TEMP:  56;

JOPLIN         CLEAR     52  42  69 S9        30.19R
6HR MIN TEMP:  51; 6HR MAX TEMP:  59;


$$
MOZ032>034-039>042-045>050-055>058-069>072-191300-
...CENTRAL MISSOURI...

CITY           SKY/WX    TMP DP  RH WIND       PRES   REMARKS
COLUMBIA       CLEAR     50  41  71 SE7       30.24R
6HR MIN TEMP:  48; 6HR MAX TEMP:  55;

JEFFERSON CITY CLEAR     44  40  85 SE7       30.24R
6HR MIN TEMP:  42; 6HR MAX TEMP:  50;

ROLLA          CLEAR     50  41  71 SE8       30.23R
6HR MIN TEMP:  49; 6HR MAX TEMP:  52;

SEDALIA        CLEAR     52  41  66 SE7       30.21R
6HR MIN TEMP:  50; 6HR MAX TEMP:  55;

WHITEMAN AFB   CLEAR     53  39  60 S9        30.19R
OSAGE BEACH    CLEAR     50  37  62 SE5       30.25R

$$
MOZ051-052-059>065-191300-
...EAST CENTRAL MISSOURI...

CITY           SKY/WX    TMP DP  RH WIND       PRES   REMARKS
ST LOUIS INTL  MOCLDY    49  39  68 E7        30.28R
6HR MIN TEMP:  48; 6HR MAX TEMP:  58;

SPIRIT OF STL  CLEAR     40  38  93 E3        30.26R
6HR MIN TEMP:  39; 6HR MAX TEMP:  47;

ST CHARLES     CLEAR     47  38  71 E5        30.27R
6HR MIN TEMP:  44; 6HR MAX TEMP:  50;


$$
MOZ072>076-082>087-097>100-106>115-191300-
...SOUTH CENTRAL AND SOUTHEAST MISSOURI...

CITY           SKY/WX    TMP DP  RH WIND       PRES   REMARKS
CAPE GIRARDEAU CLEAR     46  43  89 CALM      30.24R
6HR MIN TEMP:  44; 6HR MAX TEMP:  53;

FARMINGTON     CLEAR     43  39  87 CALM      30.27R
6HR MIN TEMP:  41; 6HR MAX TEMP:  48;

POPLAR BLUFF   CLEAR     47  41  80 N3        30.22R
6HR MIN TEMP:  47; 6HR MAX TEMP:  56;

WEST PLAINS    CLEAR     45  39  79 CALM      30.25R
6HR MIN TEMP:  42; 6HR MAX TEMP:  50;


$$



USA.gov is the U.S. government's official web portal to all federal, state and local government web resources and services.